{"data":{"norad_id":55959,"intl_designator":"2023-037AX","name":"STARLINK-5929","alt_names":[],"object_type":"PAYLOAD","status":"ACTIVE","operator":null,"country":"US","launch_date":"2023-03-17","launch_site_code":"AFWTR","launch_vehicle":null,"mission":null,"orbit_class":"UNKNOWN","rcs_meters":null,"size_class":null,"mass_kg":null,"dimensions":null,"purposes":["comms"],"wikipedia_slug":null,"has_3d_model":false,"image_url":null,"decayed_at":null,"tle_current":{"epoch":"2026-09-20T07:06:12.203712Z","epoch_age_seconds":123832,"freshness":"FRESH","line1":"1 55959U 23037AX  26263.29597458  .00000068  00000+0  13471-4 0  9999","line2":"2 55959  69.9980 133.7694 0002821 264.9392  95.1445 14.98330243193623","mean_motion":14.98330243,"eccentricity":0.0002821,"inclination_deg":69.998,"raan_deg":133.7694,"arg_perigee_deg":264.9392,"mean_anomaly_deg":95.1445,"bstar":1.3471e-5,"rev_number":19362,"period_min":96.106983539009,"perigee_km":570.09449028451,"apogee_km":574.01578868961,"semimajor_km":6950.1921394871,"source":"CELESTRAK","updated_at":"2026-09-21T09:00:33.347524Z"}}}